This is the latest recevied weather packets stored in our database for station/object K3RUP-1. If no packets are shown the sender has not sent any weather packets the latest 1 day(s).
| Time | Temp. | Humidity | Pressure | Rain* | Wind** | Luminosity | Snow |
|---|---|---|---|---|---|---|---|
| 1778068724 | 18.89° C | 78% | 1009.7 hPa | 0 mm | - | 38 W/m² | - |
| 1778068422 | 18.89° C | 78% | 1009.7 hPa | 0 mm | - | 29 W/m² | - |
| 1778067817 | 18.89° C | 78% | 1009.5 hPa | 0 mm | - | 32 W/m² | - |
| 1778067213 | 18.89° C | 78% | 1009.3 hPa | 0 mm | - | 75 W/m² | - |
| 1778066304 | 18.33° C | 79% | 1009.3 hPa | 0 mm | - | 39 W/m² | - |
| 1778066002 | 18.33° C | 79% | 1009.4 hPa | 0 mm | - | 43 W/m² | - |
| 1778065396 | 18.33° C | 79% | 1009.1 hPa | 0 mm | - | 22 W/m² | - |
| 1778065093 | 18.33° C | 79% | 1009.3 hPa | 0 mm | - | 16 W/m² | - |
| 1778064487 | 18.33° C | 79% | 1009.1 hPa | 0 mm | - | 20 W/m² | - |
| 1778061462 | 17.78° C | 81% | 1009.2 hPa | 0 mm | - | 0 W/m² | - |
| 1778060252 | 17.78° C | 81% | 1009 hPa | 0 mm | - | 0 W/m² | - |
| 1778059344 | 17.78° C | 81% | 1009.2 hPa | 0 mm | - | 0 W/m² | - |
| 1778058133 | 18.33° C | 80% | 1009.2 hPa | 0 mm | - | 0 W/m² | - |
| 1778057830 | 18.33° C | 80% | 1009.3 hPa | 0 mm | - | 0 W/m² | - |
| 1778057526 | 18.33° C | 80% | 1009.3 hPa | 0 mm | - | 0 W/m² | - |
| 1778057223 | 18.33° C | 79% | 1009.1 hPa | 0 mm | - | 0 W/m² | - |
| 1778056919 | 18.33° C | 79% | 1009.2 hPa | 0 mm | - | 0 W/m² | - |
| 1778056616 | 18.89° C | 78% | 1009.2 hPa | 0 mm | - | 0 W/m² | - |
| 1778056314 | 18.89° C | 78% | 1009.3 hPa | 0 mm | - | 0 W/m² | - |
| 1778055705 | 18.89° C | 76% | 1009.1 hPa | 0 mm | - | 0 W/m² | - |
| 1778055404 | 18.89° C | 76% | 1009.1 hPa | 0 mm | - | 0 W/m² | - |
| 1778055101 | 18.89° C | 76% | 1009.1 hPa | 0 mm | - | 0 W/m² | - |
| 1778054799 | 18.89° C | 76% | 1009 hPa | 0 mm | - | 0 W/m² | - |
| 1778054495 | 19.44° C | 76% | 1009.2 hPa | 0 mm | - | 0 W/m² | - |
| 1778054193 | 19.44° C | 76% | 1009.3 hPa | 0 mm | - | 0 W/m² | - |
* Rain latest hour (hover to see other rain measurements)
** Current wind speed in m/s (hover to see current wind gust speed)